Regional Weather Roundup
Issued by NWS Goodland, KS

Home | Current Version | Previous Version | Text Only | Print | Product List | Glossary On
Versions: 1 2 3 4 5 6 7 8 9 10 11 12 13 14 15 16 17 18 19 20 21 22 23 24 25 26 27 28 29 30 31 32 33 34 35 36 37 38 39 40 41 42 43 44 45 46 47 48 49 50
000
ASUS43 KGLD 032208
RWRGLD

GOODLAND FORECAST AREA HOURLY WEATHER ROUNDUP
NATIONAL WEATHER SERVICE GOODLAND KS
400 PM MDT SUN MAY 03 2015

...OFFICIAL OBSERVATIONS...

CITY           SKY/WX    TMP DP  RH WIND       PRES   REMARKS
GOODLAND KS    CLOUDY    83  40  21 N12       29.85F
HILL CITY KS   PTSUNNY   86  49  27 W5        29.76F
IMPERIAL NEB   SUNNY     82  41  23 N17G23    29.85S
MCCOOK NEB     MOSUNNY   88  43  20 N13       29.77F
AKRON CO       MOSUNNY   76  41  28 NE16G22   29.92F
BURLINGTON CO  PTSUNNY   81  32  17 NE6       29.89F
LIMON CO       CLOUDY    72  28  19 NE5       29.95S
$$

...UNOFFICIAL OBSERVATIONS...

CITY           SKY/WX    TMP DP  RH WIND       PRES   REMARKS
COLBY KS       SUNNY     86  43  22 N3        29.83F
GOVE KS          N/A     88  32  13 MISG        N/A
LENORA KS        N/A     86  32  14 MISG        N/A
NORTON KS      SUNNY     88  25  10 SW13G18   29.75F
SHARON SPRINGS   N/A     82  46  28 MISG        N/A
KIT CARSON CO    N/A     78  39  24 MISG        N/A
YUMA CO          N/A     79  39  23 N13         N/A
$$



USA.gov is the U.S. government's official web portal to all federal, state and local government web resources and services.